Wind_Speed
22 22 21 21 21 20 19 18 18 18 17 16 16 16 17 17 17 17 17 16 15 14 13 12 10 10 10 10 9 8 8 7 7 7 7 7 7 7 7 7 8 7 7 8 8 8 8 8 8 8 8 8 8 8 9 9 10 10 11 12 13 14 16 17 17 16 16 15 14 13 14 13 13 13 13 13 14 14 15 17 19 21 21 20 19
24 23 23 22 22 21 20 19 18 18 18 17 17 16 17 17 17 18 18 17 16 15 14 14 13 11 11 10 10 9 9 9 8 8 7 7 7 7 7 8 8 8 8 8 8 7 7 8 8 8 9 8 8 8 9 9 10 11 12 13 13 14 14 16 16 17 17 17 16 16 16 16 15 15 16 16 16 16 17 18 19 21 23 24 24
23 23 24 24 23 23 22 21 19 18 18 18 17 17 17 17 18 18 18 18 18 17 16 15 15 14 13 12 11 11 10 10 10 9 8 8 8 8 9 9 9 9 9 9 9 8 7 8 8 8 8 9 9 9 9 9 10 10 11 12 13 13 14 15 16 17 17 17 18 18 18 18 18 18 18 18 19 19 19 20 20 21 23 25 26
22 22 24 25 25 25 24 22 21 19 18 18 18 18 18 17 18 18 18 18 19 19 18 17 16 16 15 14 13 12 12 11 11 10 9 9 9 9 9 9 10 10 10 10 10 9 8 8 8 8 8 9 9 9 9 9 9 10 10 11 12 13 15 15 16 16 17 17 18 19 20 20 20 20 21 21 21 22 22 23 23 23 23 24 26
23 23 25 26 27 26 26 25 23 21 20 19 19 19 19 19 18 18 19 19 20 20 20 19 18 17 16 15 14 13 13 12 11 11 10 10 10 10 10 10 10 10 11 10 10 10 10 10 9 9 9 9 9 9 9 9 9 10 10 11 11 12 14 15 16 17 18 19 19 20 21 22 22 22 23 23 24 24 25 26 26 26 25 25 26
24 25 28 31 29 27 26 26 24 22 21 21 20 19 19 20 19 19 19 19 20 21 20 20 20 19 18 17 16 15 15 14 14 13 12 12 12 11 11 11 11 11 11 11 11 11 10 10 10 10 10 10 10 10 10 10 10 10 10 10 11 12 13 14 15 16 17 18 19 20 21 21 22 22 23 24 25 25 25 25 26 26 26 26 26
22 24 28 34 34 30 29 29 26 24 23 23 22 20 19 20 20 19 19 19 20 21 20 20 20 19 19 18 18 18 17 17 17 16 15 14 14 13 13 12 12 12 12 12 12 12 12 12 11 11 11 11 11 11 11 11 11 11 11 11 12 12 13 14 14 15 16 17 17 18 19 20 21 21 22 23 24 24 25 25 25 25 25 25 25
20 23 26 31 32 30 30 29 27 26 25 25 24 23 21 20 19 18 18 19 20 20 20 20 20 20 20 19 20 20 20 20 20 19 18 17 17 16 16 15 15 14 14 13 13 13 13 13 13 13 13 13 13 13 13 13 13 13 13 13 13 14 14 15 16 16 16 17 17 18 19 19 20 20 21 22 23 23 24 25 25 24 24 24 24
22 25 27 28 28 27 28 28 27 27 28 29 29 27 24 22 21 18 16 17 19 19 20 21 21 21 20 20 21 22 22 22 22 21 20 20 20 19 18 18 17 17 17 16 16 16 15 15 14 14 14 14 14 14 14 14 14 14 14 15 15 15 15 16 17 17 18 18 18 18 20 20 20 21 21 22 23 24 24 25 25 24 24 24 24
26 28 29 28 26 26 27 27 27 27 28 30 30 28 26 25 23 20 18 17 18 18 19 21 22 22 21 20 21 22 23 24 24 23 22 22 22 21 21 20 20 20 20 19 19 18 18 17 17 16 16 16 15 14 14 14 15 15 15 16 16 16 17 17 17 18 19 19 19 20 20 21 21 21 22 22 23 24 24 25 26 26 25 25 23
28 30 31 29 26 26 26 25 26 27 28 29 28 26 26 26 25 24 23 21 19 19 20 21 22 22 22 21 21 22 24 24 25 24 23 23 23 23 23 23 22 22 22 22 21 21 20 20 19 19 19 19 18 17 16 15 16 17 17 18 18 18 18 18 18 19 20 20 21 21 22 22 21 22 22 22 22 23 24 25 26 27 27 27 26
28 30 31 29 28 27 25 24 26 29 29 28 27 27 28 27 27 27 27 25 23 22 21 21 21 21 21 22 22 21 22 22 24 24 24 23 24 24 25 25 25 24 24 24 23 23 22 22 21 21 21 21 21 21 20 18 18 18 19 19 20 20 20 19 19 19 20 21 22 22 22 22 22 22 22 23 23 24 25 25 26 27 28 28 28
28 28 29 30 29 28 26 26 28 29 28 25 25 27 29 29 29 30 30 27 25 25 25 23 23 22 22 22 22 21 21 21 22 23 23 22 21 23 24 25 26 27 26 26 25 25 24 23 23 23 23 23 23 23 23 21 19 19 20 21 22 22 22 21 21 21 21 23 24 23 22 23 24 23 23 24 26 26 27 26 26 27 28 29 29
29 30 31 32 31 30 30 29 28 27 26 26 27 29 30 30 31 32 31 30 28 28 28 27 25 25 25 24 23 22 21 21 22 23 23 21 19 20 21 24 26 27 28 28 27 27 26 26 26 25 24 24 24 25 25 24 22 20 19 21 22 23 23 24 23 23 23 23 24 24 23 23 25 25 24 26 28 29 29 29 28 28 29 29 29
29 31 33 33 33 33 32 31 30 28 27 28 29 29 29 29 30 30 30 31 31 30 30 30 28 27 27 27 28 27 24 22 22 24 23 22 20 20 20 22 24 26 27 28 28 28 28 27 27 26 25 24 24 25 25 26 26 24 22 21 21 23 24 25 25 25 25 25 25 25 24 23 25 25 25 26 28 29 30 31 31 30 30 30 29
26 28 29 31 32 32 33 34 33 31 29 29 28 28 27 28 30 31 31 32 33 33 33 32 31 30 29 29 31 31 28 24 24 25 24 23 22 21 21 21 23 25 26 27 27 28 27 27 27 26 25 24 23 23 24 25 26 27 27 25 23 23 24 24 24 25 25 26 26 26 25 24 25 26 26 27 28 28 30 32 32 31 30 30 29
23 24 25 26 28 30 31 32 31 31 31 31 30 28 27 27 30 32 34 34 34 34 33 32 31 31 31 31 31 31 30 27 26 26 26 25 25 24 22 22 22 24 25 26 27 27 27 26 26 26 25 24 23 23 23 24 25 26 27 27 27 27 25 24 24 24 24 24 25 25 25 25 25 26 27 27 27 28 30 31 31 30 30 31 29
17 18 19 21 21 22 24 24 26 29 32 32 30 28 28 28 30 32 34 35 35 34 32 31 29 29 30 31 31 30 29 29 29 28 28 28 29 28 26 25 24 24 25 26 27 27 27 26 26 26 26 24 24 23 24 24 25 26 26 27 29 29 27 26 26 26 25 26 25 25 25 26 26 27 27 27 27 28 30 30 28 28 29 29 28
10 12 13 14 13 13 15 17 20 26 29 29 29 29 29 30 31 32 34 34 34 34 32 32 31 29 29 30 30 30 29 29 29 30 30 30 30 31 31 31 29 27 26 27 27 28 28 27 27 27 26 25 24 25 25 26 26 26 26 28 29 29 28 27 28 27 28 28 28 28 27 27 27 27 27 27 26 27 28 27 25 25 25 25 24
10 10 11 11 10 9 10 11 13 17 21 24 26 27 29 31 31 32 33 33 33 33 33 32 32 31 30 31 31 31 31 31 31 31 31 32 31 31 32 33 32 31 30 30 30 29 28 28 27 27 27 26 26 26 26 27 27 27 27 29 29 29 28 29 29 29 30 30 30 30 30 29 28 28 28 26 25 24 23 22 21 22 23 23 23
13 13 13 13 12 10 10 9 9 9 12 15 17 18 23 28 30 32 32 32 32 32 33 33 33 33 33 33 32 32 33 35 36 35 34 33 32 31 31 31 32 33 33 33 32 31 30 29 28 27 27 27 27 27 28 28 29 29 28 28 28 29 29 30 30 30 31 31 31 31 31 31 30 29 28 26 23 21 20 20 21 23 25 25 24
18 18 17 17 15 14 12 11 10 9 8 9 10 10 13 18 23 27 30 33 33 32 32 33 33 33 34 34 34 36 36 35 34 31 30 30 31 31 31 30 30 32 34 34 34 32 31 30 30 29 29 29 28 27 28 29 30 30 29 29 29 30 31 31 31 31 32 31 31 32 32 31 30 29 27 25 23 21 22 22 21 22 24 25 24
24 22 22 22 20 19 17 15 14 13 11 10 9 8 8 10 14 19 23 27 30 30 31 32 32 32 33 34 36 37 36 33 30 28 27 28 31 32 32 30 29 31 33 33 34 34 33 32 32 32 32 31 29 28 28 28 30 30 30 30 31 32 33 33 32 32 32 31 31 31 31 31 31 29 27 25 24 24 24 24 23 21 22 23 24
29 27 26 25 25 23 22 20 19 17 15 13 12 11 9 8 10 13 16 19 22 24 27 30 31 32 33 34 35 35 33 32 31 28 28 29 30 31 32 31 31 32 33 32 32 33 34 34 34 34 33 32 31 30 29 29 29 30 30 31 32 33 34 34 34 33 33 32 31 31 30 30 30 29 28 27 27 28 28 27 27 26 25 25 25
31 31 30 29 28 28 27 25 24 22 20 18 16 15 14 13 11 12 14 16 18 20 23 25 28 31 33 33 34 33 32 32 32 32 31 29 27 27 30 32 33 34 34 31 30 31 33 35 36 35 34 34 33 32 31 31 30 30 31 31 32 34 34 35 35 35 34 32 31 31 30 29 29 29 28 28 29 29 29 28 27 27 28 29 29
34 33 33 32 31 31 30 29 28 27 25 23 21 19 19 18 17 16 16 16 17 18 20 23 25 27 29 30 31 31 31 32 32 34 32 27 21 22 26 29 32 35 36 33 31 31 33 34 36 37 36 36 36 34 34 33 32 32 32 32 33 33 34 34 35 36 35 33 32 30 28 28 28 28 27 28 27 27 27 27 26 25 26 28 30
36 35 35 35 34 33 33 32 32 31 30 28 26 24 23 23 22 21 20 19 20 20 20 22 23 24 25 25 26 28 31 32 32 33 32 29 24 22 23 25 29 31 34 34 34 34 34 34 36 37 38 38 38 37 36 35 34 34 33 33 33 33 33 34 36 36 35 33 30 29 27 26 26 25 25 25 25 24 24 25 25 25 24 26 29
35 36 36 36 36 36 35 35 35 34 34 33 31 30 28 28 27 26 25 24 24 23 22 22 23 23 23 24 25 27 29 32 33 32 32 32 31 27 24 24 26 28 30 32 34 36 37 37 37 37 39 39 39 39 38 37 36 35 34 32 32 33 33 35 36 35 33 32 30 29 28 27 27 26 27 27 27 26 26 27 27 26 26 28 31
34 35 35 36 37 37 37 37 37 37 37 36 35 34 33 33 32 31 30 28 27 27 26 25 25 24 24 24 26 26 27 29 32 32 33 34 35 33 29 26 25 26 28 30 32 34 36 38 38 38 39 40 41 41 40 39 37 36 34 33 33 34 35 36 37 35 34 34 33 32 31 31 30 30 31 31 30 30 31 31 31 30 30 31 33
34 34 34 35 36 37 37 38 38 38 38 38 38 38 37 37 37 36 34 33 32 31 31 29 28 27 26 25 27 28 28 28 30 32 33 35 37 37 35 31 28 26 26 29 31 33 34 36 37 38 40 42 43 42 40 39 38 37 36 35 35 35 35 36 37 36 36 37 37 36 36 36 35 34 34 34 33 34 35 35 34 34 33 33 34
34 34 34 35 36 37 37 38 38 38 38 38 39 40 39 39 39 39 38 37 37 36 36 34 32 31 29 28 28 29 30 30 30 31 32 35 38 39 38 37 34 30 28 30 32 33 35 36 36 36 37 39 41 41 40 38 38 38 38 38 37 36 35 35 35 36 37 39 40 40 40 39 39 38 36 35 36 37 37 38 37 37 36 35 35
34 34 35 35 36 37 38 38 38 39 39 39 39 40 40 40 39 39 39 40 40 41 40 38 36 35 33 31 30 30 31 32 33 32 32 33 36 38 39 39 37 34 34 34 32 31 34 36 35 34 34 36 38 39 39 38 37 37 37 38 38 37 36 35 35 36 37 39 40 41 40 40 39 37 35 35 36 37 37 37 38 37 37 37 37
35 35 36 36 37 37 38 39 39 39 40 40 40 40 40 41 40 40 39 40 41 43 43 43 41 39 38 36 33 32 32 33 34 34 34 34 35 36 37 38 38 38 39 39 33 29 29 32 33 32 32 35 37 37 36 36 35 35 36 39 39 39 38 38 39 39 38 39 40 41 41 40 38 36 36 36 36 35 35 36 37 37 37 37 37
36 36 37 37 38 39 39 40 40 41 41 41 41 41 42 42 41 41 41 40 41 42 44 45 46 45 42 40 38 36 35 35 36 36 36 37 37 36 36 35 36 38 41 41 38 33 29 28 30 31 31 32 35 35 34 33 33 33 35 38 40 40 41 41 43 43 42 42 44 45 45 44 41 39 39 38 35 33 33 33 33 33 34 35 36
37 38 38 38 39 40 41 41 41 42 42 42 42 43 43 43 43 43 43 42 41 41 42 45 47 48 47 45 43 41 39 38 39 39 38 38 39 39 37 35 34 36 39 40 40 40 37 33 31 31 31 31 32 32 32 32 32 34 35 36 37 39 40 42 43 44 44 45 47 48 48 46 41 37 35 34 33 31 30 30 30 29 29 31 34
39 39 39 39 40 40 41 42 42 43 43 44 44 44 44 44 45 45 44 43 43 42 41 42 45 49 50 49 48 46 43 42 42 42 42 41 40 40 39 37 35 36 38 39 39 40 42 40 37 34 33 32 32 33 33 33 34 35 37 39 40 39 39 40 41 41 43 46 48 47 45 41 36 33 32 33 31 30 31 32 32 31 30 30 32
40 40 40 41 41 41 42 43 44 44 44 45 45 46 46 46 46 46 46 45 44 44 43 42 44 47 49 51 51 51 49 47 45 45 45 44 43 42 41 39 37 37 39 39 38 39 41 43 43 40 38 36 35 35 36 36 37 38 39 42 44 44 43 41 41 42 45 46 44 41 38 35 31 30 31 32 32 31 32 33 31 30 30 30 31
41 41 42 42 42 43 43 44 44 45 46 46 46 47 47 47 47 47 47 47 46 45 45 43 43 45 47 50 52 53 53 52 50 49 47 46 46 45 43 41 40 39 39 39 39 39 40 42 43 43 43 42 40 39 39 39 40 41 43 43 44 46 46 45 45 48 50 47 42 40 39 36 31 29 30 32 32 31 32 32 31 30 29 29 30
42 43 43 43 43 44 45 45 46 46 47 47 47 47 48 48 48 48 48 48 48 47 46 45 44 44 46 48 51 53 55 55 54 53 51 49 48 48 46 44 42 41 40 39 39 39 40 41 42 43 43 43 43 44 44 45 46 46 47 47 46 47 47 47 48 51 50 47 45 45 42 37 34 33 32 32 31 32 33 34 33 31 30 31 32
42 43 44 44 45 46 47 47 47 47 47 48 48 48 48 48 48 48 49 49 49 49 48 47 45 45 46 48 50 52 55 56 57 56 55 53 51 50 49 48 46 44 42 40 39 40 41 42 42 42 42 41 42 43 45 48 49 49 48 48 47 46 46 46 47 48 47 46 46 44 39 35 34 34 34 31 29 31 34 35 34 33 33 34 34
42 44 45 45 44 45 47 48 48 48 48 48 48 48 49 48 48 48 48 49 49 49 49 49 47 46 46 47 50 52 55 56 57 57 57 56 55 53 52 51 50 47 44 43 42 42 43 43 42 43 42 40 38 38 41 44 46 47 46 45 44 44 43 42 42 43 44 44 42 38 36 34 33 33 32 30 27 29 31 33 33 35 36 36 37
43 44 45 45 44 44 46 46 45 46 47 48 48 48 48 47 47 47 47 48 48 49 50 50 49 48 48 48 50 52 54 55 56 57 58 58 57 55 54 53 53 51 48 46 44 43 42 41 41 43 43 41 37 35 37 39 41 42 42 42 42 42 43 42 41 42 42 42 39 36 34 34 33 32 31 30 30 29 30 32 33 35 37 39 41
44 45 45 45 44 45 45 44 43 44 45 46 47 47 46 45 46 46 46 46 46 47 49 50 50 50 50 50 51 52 54 55 56 57 58 57 58 58 57 56 55 55 52 49 47 45 43 41 40 40 42 43 39 35 34 36 37 39 40 41 42 42 43 44 44 43 43 42 40 37 35 35 35 35 35 35 35 35 35 36 37 38 39 42 44
44 45 45 45 44 44 45 45 44 42 40 40 42 44 44 43 42 41 39 40 41 43 46 48 50 51 52 52 53 53 54 55 56 57 56 56 57 58 59 58 57 57 56 53 50 48 46 44 41 39 40 41 40 37 35 34 35 37 38 40 41 42 42 42 42 42 41 41 40 38 37 38 39 39 39 39 40 41 41 41 42 43 44 44 45
42 43 44 44 43 43 43 43 42 40 36 35 37 39 40 41 39 36 33 34 36 39 41 44 46 48 50 52 54 55 55 55 56 56 55 55 55 57 59 60 59 59 58 56 53 51 49 47 45 42 41 41 41 40 38 36 35 35 36 38 40 42 43 43 42 41 41 41 41 40 41 41 42 42 42 42 43 44 45 45 45 46 46 46 46
40 41 42 42 42 42 41 40 40 37 34 32 34 35 36 37 37 35 34 34 36 38 39 39 40 41 42 46 52 55 56 55 55 55 55 54 54 55 56 59 60 61 60 58 55 54 52 51 49 47 44 43 42 42 41 39 37 36 37 38 39 41 43 43 43 42 42 42 42 42 42 43 43 44 45 47 47 47 47 48 48 47 46 48 49
39 40 41 41 41 40 39 38 37 36 33 32 33 34 34 34 34 34 35 37 37 38 38 39 40 41 41 43 49 54 55 55 55 55 54 54 54 54 55 56 58 61 62 61 58 55 54 53 52 51 48 46 45 45 45 43 41 39 38 39 39 40 41 43 43 43 43 43 43 42 42 43 46 48 48 48 49 50 49 49 48 47 47 49 50
37 39 40 40 40 39 38 36 35 35 34 33 33 34 35 35 34 34 35 37 38 39 39 40 43 45 45 46 48 51 53 54 55 54 53 53 53 53 53 54 56 58 61 63 62 59 56 54 53 53 51 49 47 46 46 46 45 42 41 41 40 40 41 41 42 42 43 43 43 42 42 44 48 51 50 48 49 51 50 48 47 47 47 48 49
33 36 38 39 39 38 37 36 36 36 36 35 34 34 35 37 37 35 34 37 40 42 42 42 43 44 45 45 46 48 50 53 53 52 51 51 51 51 52 53 54 55 58 61 63 63 60 57 55 54 53 52 50 48 47 46 46 44 43 42 41 41 41 42 43 43 43 43 43 44 45 46 48 50 49 48 48 51 51 51 51 52 52 52 53
30 32 34 36 37 36 36 37 38 39 38 36 34 33 35 38 39 37 36 38 42 44 44 44 44 44 43 43 43 44 47 50 52 51 49 47 47 47 49 51 52 53 55 58 61 63 63 60 58 56 55 54 53 51 48 47 46 45 44 43 42 42 42 43 44 46 46 46 46 46 48 49 49 49 49 49 49 50 50 51 51 52 51 51 52
29 30 31 33 34 34 35 37 39 40 38 37 35 34 35 36 36 35 34 36 39 41 42 43 44 44 43 42 43 44 45 47 49 48 46 44 43 43 45 47 49 51 52 54 57 60 62 62 61 59 57 55 54 52 50 49 47 46 45 44 43 42 42 43 45 46 47 47 48 48 49 49 49 49 49 49 49 49 49 48 48 47 47 46 46
Wind_Direction
221 223 222 219 219 219 216 215 221 226 228 231 232 231 230 228 225 224 224 224 225 225 225 224 221 224 226 227 228 224 217 212 210 211 209 207 212 212 205 200 198 198 197 200 202 198 196 202 209 214 216 215 216 219 220 222 225 229 232 235 236 233 232 233 236 239 244 251 257 263 270 278 285 292 299 305 309 313 317 320 322 323 324 327 330
222 222 223 222 221 221 219 216 217 222 227 230 232 233 233 234 232 229 227 227 228 229 229 229 227 227 228 227 230 233 232 228 223 219 215 213 218 223 221 214 211 211 209 210 214 208 202 206 211 213 214 216 218 222 224 225 227 231 234 237 241 241 239 240 244 247 249 252 256 261 267 272 278 286 293 298 302 307 309 312 313 315 318 320 321
234 228 223 222 223 224 223 221 218 219 224 228 232 235 235 234 235 236 235 231 230 230 231 233 232 231 231 231 232 235 238 239 236 228 221 220 223 226 229 229 225 222 221 220 221 219 214 212 213 213 212 212 216 221 225 229 233 237 239 242 246 248 249 249 251 254 254 256 260 263 267 273 278 282 288 293 297 300 302 304 306 309 312 313 315
240 232 225 221 221 223 223 221 219 218 222 225 229 234 235 234 233 235 238 236 234 233 232 234 235 234 233 234 235 238 241 244 245 240 230 225 228 229 231 234 234 232 231 231 230 229 227 224 221 220 219 218 220 224 228 233 238 241 242 246 250 252 255 256 257 260 261 263 266 270 273 276 280 284 288 292 294 297 300 301 303 305 307 309 311
236 231 231 226 221 221 222 220 218 218 223 226 226 230 234 235 233 232 235 237 237 236 234 236 238 237 237 238 238 240 244 246 247 246 242 237 234 233 233 237 239 238 236 237 238 237 237 236 234 231 231 232 232 233 235 238 243 246 248 251 254 257 261 263 263 264 265 268 270 273 276 278 281 284 288 291 294 297 299 301 304 305 307 309 310
230 227 232 232 223 218 220 221 218 217 223 229 229 231 235 237 236 233 232 236 240 240 238 237 241 242 241 241 241 242 243 246 247 247 247 247 246 243 240 239 239 240 241 242 242 243 242 242 242 241 239 239 240 241 243 244 247 250 254 258 260 263 265 266 267 268 270 272 273 275 277 279 282 284 287 289 292 295 296 298 301 303 305 308 309
229 223 227 231 225 217 217 218 217 214 217 225 231 233 236 239 241 239 236 235 239 244 244 240 241 243 244 243 244 244 244 244 246 247 248 251 252 252 250 246 243 242 244 246 244 244 245 245 246 246 245 245 246 247 248 249 252 254 255 258 261 264 266 267 269 272 274 276 277 279 280 281 283 285 287 289 291 294 295 296 298 300 302 305 306
231 222 221 227 227 222 219 217 217 215 215 221 229 232 234 238 241 242 242 240 240 243 248 248 245 244 244 245 244 246 246 246 246 247 248 252 254 255 254 253 251 249 248 250 250 247 246 246 247 247 247 248 249 250 251 251 254 256 258 260 261 263 266 268 270 272 274 276 278 280 281 282 285 287 288 290 291 293 293 294 295 297 299 301 302
235 228 225 227 226 224 223 220 217 217 216 218 221 221 222 229 233 232 235 242 244 242 244 250 251 247 245 246 246 247 247 247 248 248 249 252 255 257 258 256 257 256 255 255 255 254 254 254 253 252 251 250 248 250 253 255 256 256 257 259 261 263 265 267 270 273 275 276 278 279 280 282 284 285 286 287 288 289 290 291 292 294 295 296 297
238 236 233 231 227 224 226 224 221 222 224 223 221 217 215 223 231 230 228 233 242 244 242 244 250 252 249 246 246 249 251 251 251 250 250 252 255 257 258 258 258 259 259 259 258 259 261 262 263 263 264 263 260 256 256 259 262 263 263 263 264 265 267 269 271 273 275 277 278 278 279 280 281 283 284 286 288 289 291 292 294 295 296 296 296
234 236 235 235 233 231 232 230 227 228 231 231 229 223 219 223 228 229 227 226 231 239 239 238 244 251 253 253 250 249 253 256 256 255 253 252 254 256 258 259 259 258 259 260 261 261 263 265 267 269 270 272 274 272 267 265 266 269 271 273 273 272 272 271 272 274 276 278 279 279 279 280 282 283 285 287 287 288 288 291 294 296 298 299 300
228 232 234 236 237 236 237 236 232 231 231 233 233 231 228 228 229 229 229 228 230 236 237 236 239 243 248 254 256 255 254 257 260 262 260 256 255 256 257 258 258 258 258 259 261 262 263 265 267 268 270 273 275 277 277 273 271 273 274 276 276 276 276 276 276 276 277 278 278 278 281 285 285 286 287 288 286 285 286 288 291 293 296 298 301
231 233 235 238 238 237 238 239 238 236 236 237 239 237 234 232 233 234 235 234 237 242 245 246 247 248 249 251 255 259 260 261 263 265 267 264 260 259 259 259 259 259 259 259 259 260 261 262 264 265 268 270 273 276 278 277 274 272 271 273 274 275 277 277 277 277 278 279 280 280 284 287 287 287 288 287 286 284 285 286 287 289 291 294 299
237 238 240 241 242 242 241 240 241 240 238 239 239 236 234 231 232 234 235 234 236 242 247 250 252 255 258 259 259 260 261 263 266 269 270 269 266 264 264 263 262 261 262 262 261 261 261 261 261 263 265 267 270 273 277 279 278 272 266 266 269 272 275 277 278 279 278 278 279 281 283 284 284 285 286 285 286 286 287 287 287 287 289 292 297
238 240 242 244 245 245 243 242 243 241 238 238 239 240 241 240 240 240 238 236 236 239 243 246 249 250 254 259 262 262 260 260 263 267 271 271 268 265 264 263 263 263 264 265 266 267 267 266 266 265 265 265 265 267 270 274 278 277 272 265 263 264 268 272 276 280 282 281 280 281 281 282 283 284 284 283 284 285 287 287 287 288 290 293 295
239 242 245 246 246 246 245 243 242 240 240 241 241 242 246 248 247 244 242 241 242 242 242 244 246 249 251 254 256 258 259 258 258 259 262 266 268 266 262 260 262 264 267 269 271 272 273 274 273 272 270 267 265 264 264 266 270 274 276 274 270 265 263 265 268 272 276 279 282 283 284 284 283 283 283 283 284 285 286 286 288 291 292 292 293
239 243 247 250 250 249 249 248 247 245 245 245 242 239 241 247 249 245 243 244 246 246 247 246 245 247 252 254 254 254 254 255 257 258 258 260 263 264 263 261 259 261 265 269 271 273 274 274 275 275 272 270 268 266 264 264 265 267 271 274 275 272 268 267 268 267 267 268 271 273 276 277 278 279 281 282 284 286 286 288 292 295 295 295 297
241 244 249 254 258 257 258 258 254 251 249 248 246 244 242 246 250 249 246 246 247 250 252 251 250 249 252 255 256 255 254 252 253 257 259 258 259 260 262 262 260 259 260 263 267 269 271 271 272 271 270 269 269 268 267 266 265 265 267 269 271 271 271 273 275 274 272 270 267 266 266 268 271 274 277 280 282 284 286 289 293 293 294 296 299
250 252 254 259 265 267 267 265 257 251 250 251 252 252 250 252 254 254 252 250 250 254 257 258 258 258 257 258 258 258 256 252 251 254 257 259 259 258 259 259 259 259 259 261 263 264 266 267 268 269 269 269 268 268 268 268 267 267 267 267 266 266 269 273 274 274 274 274 273 271 269 268 269 271 273 276 279 282 285 289 292 292 293 295 296
255 261 264 264 268 269 270 272 265 257 255 254 254 255 256 258 259 259 258 256 254 256 258 261 263 262 260 260 260 259 258 254 250 250 252 254 254 254 255 256 257 259 259 261 262 262 263 264 265 266 268 268 268 269 269 269 269 268 267 266 265 267 269 270 270 270 271 271 272 272 272 272 271 271 272 275 278 281 282 284 288 291 291 291 291
256 259 264 266 269 268 267 271 273 271 267 263 261 261 258 257 257 258 259 259 257 256 257 261 264 263 262 261 261 259 256 251 247 245 246 249 251 251 253 254 255 258 260 261 261 261 262 264 264 265 265 265 266 267 268 269 269 269 267 266 266 268 269 268 268 268 269 269 269 270 271 272 273 274 276 278 280 279 278 280 286 290 289 287 287
258 258 261 263 266 268 269 271 271 272 272 267 267 266 259 254 253 253 254 255 255 256 257 260 262 263 264 264 263 262 259 257 258 259 260 259 259 258 260 259 256 258 260 261 261 261 262 263 264 265 266 265 264 263 264 265 266 266 266 266 267 268 268 268 268 268 268 268 268 269 271 273 275 277 279 281 281 279 278 277 278 279 279 280 282
259 259 260 262 264 265 266 270 271 271 272 271 271 272 267 256 249 247 248 249 251 253 256 258 259 260 262 263 263 264 267 271 277 280 277 270 264 263 263 263 260 260 261 262 262 263 264 264 265 265 265 265 265 264 262 262 261 261 262 263 265 266 267 268 268 268 269 269 269 269 271 273 276 279 281 283 284 283 282 280 277 273 269 269 272
259 258 258 259 260 261 261 262 264 265 266 268 271 275 277 270 258 253 250 249 250 251 253 254 256 258 260 262 263 266 270 273 275 276 272 268 265 264 263 261 260 261 262 262 262 263 264 265 266 266 266 265 265 264 263 262 260 259 258 259 260 261 263 266 268 269 270 269 269 270 271 273 275 277 280 282 283 283 283 284 285 284 281 277 275
259 258 257 256 256 257 257 257 258 259 259 260 262 266 270 272 270 265 261 258 256 254 253 253 255 256 258 261 264 266 268 267 267 267 266 266 270 272 267 262 261 261 262 263 264 264 264 265 266 266 266 266 265 264 263 262 261 260 259 259 259 259 261 264 267 269 270 271 271 272 272 273 274 276 277 278 278 279 280 283 285 286 287 287 286
259 259 259 258 256 255 255 254 254 255 255 256 256 258 261 265 267 267 267 267 265 261 257 254 253 253 256 259 262 265 266 265 264 264 262 263 270 278 274 269 265 263 261 261 262 263 264 265 265 264 264 264 262 261 261 260 260 260 259 259 260 260 262 264 266 268 270 271 272 272 272 272 273 274 274 274 273 275 278 281 283 283 283 285 286
259 259 259 259 259 257 256 254 253 252 251 252 253 254 256 259 262 263 265 266 267 266 264 260 257 257 258 260 261 262 263 262 261 261 260 256 253 258 267 272 273 269 264 260 259 260 262 265 265 263 262 262 261 259 257 257 258 258 258 259 260 260 261 262 264 266 268 270 271 270 271 271 271 271 271 271 272 273 275 277 278 279 279 280 280
258 259 259 259 259 259 258 256 255 253 251 249 249 250 251 254 256 257 259 261 263 266 267 267 266 263 261 260 259 259 259 260 259 258 257 255 251 248 253 262 270 274 271 265 262 261 261 263 265 264 262 262 262 260 259 258 257 258 258 257 258 259 260 261 263 265 267 268 269 268 268 269 271 271 273 273 273 273 274 274 274 275 276 277 279
260 260 260 260 260 260 259 258 257 256 254 252 249 247 247 248 251 254 256 258 260 262 263 264 265 265 263 262 262 262 262 263 263 259 256 254 253 251 250 253 259 266 271 271 268 265 264 264 265 264 264 265 264 261 260 260 261 260 259 257 257 258 260 262 263 265 267 268 268 268 269 270 272 274 276 277 277 278 278 277 277 276 275 274 277
263 263 262 262 262 262 261 260 260 259 258 257 255 252 248 245 247 250 254 255 254 256 258 259 260 261 262 262 263 264 264 265 265 262 258 255 254 253 254 253 253 257 266 272 271 269 266 266 265 264 264 265 264 260 259 262 264 263 262 261 260 261 262 262 263 264 265 267 269 270 271 273 275 277 278 279 281 282 281 280 278 278 276 275 275
266 265 264 263 263 263 263 263 262 261 261 260 259 258 254 250 247 247 248 249 250 251 254 255 256 256 257 258 259 261 264 266 266 265 261 257 255 255 256 256 254 254 260 267 270 271 268 265 264 265 264 264 262 260 260 262 266 268 265 262 262 265 264 262 262 263 264 266 267 269 271 273 275 277 279 281 282 282 280 279 278 276 275 275 275
270 269 267 266 265 264 264 263 263 263 262 262 261 261 260 258 253 249 247 246 246 247 249 251 252 253 253 254 255 257 260 263 265 266 266 262 258 256 256 257 257 258 259 260 265 272 273 267 262 261 262 263 262 261 261 264 269 271 265 259 261 266 266 265 266 266 265 266 267 268 269 270 271 274 278 283 284 282 280 279 277 276 275 273 271
272 271 270 270 268 267 266 265 264 263 262 262 262 262 262 261 260 256 251 247 244 244 245 247 248 249 249 249 250 253 256 258 260 262 265 265 263 260 258 257 257 259 260 259 260 268 275 274 268 262 260 262 263 263 263 267 272 273 266 261 261 264 266 267 268 267 267 269 270 271 271 272 275 278 283 288 289 286 281 279 279 279 278 276 274
271 271 271 271 270 269 268 267 266 265 263 262 261 261 261 262 262 260 257 253 248 245 243 243 245 246 247 247 246 247 250 253 256 257 259 261 262 262 262 261 259 259 260 259 259 261 265 269 270 268 264 264 265 264 265 269 273 274 271 266 264 264 264 266 267 268 269 271 272 274 276 277 278 282 289 295 294 288 284 285 289 290 288 285 282
271 271 270 270 270 270 270 269 268 267 266 264 262 261 260 260 261 261 260 258 255 249 245 243 243 244 245 245 245 244 245 247 251 253 254 255 258 260 262 264 262 261 261 260 260 260 259 258 260 261 261 262 262 263 264 267 270 273 274 272 268 265 265 266 267 269 270 271 273 276 278 279 281 287 293 295 292 288 288 292 295 295 292 289 285
272 271 271 270 270 270 270 269 269 268 267 266 264 262 260 259 259 260 260 260 259 256 250 245 243 243 243 244 244 244 244 244 246 249 250 252 253 256 259 261 263 263 262 261 260 260 260 258 256 255 254 255 255 257 260 263 265 268 271 272 272 270 268 268 269 271 273 275 277 278 278 281 288 295 295 291 289 290 291 291 291 290 288 285 282
274 272 272 271 271 270 270 269 268 268 267 266 265 264 262 260 259 259 258 258 258 257 254 249 245 242 242 243 244 245 245 244 244 245 247 249 251 252 254 256 258 261 262 262 261 259 259 259 258 256 254 253 251 251 254 257 260 262 264 267 271 273 273 273 274 275 276 277 277 277 280 286 294 299 297 294 291 289 287 286 287 288 285 279 275
275 274 273 272 271 271 270 269 268 268 267 266 265 264 263 262 260 258 257 256 256 256 255 253 249 245 243 243 244 245 245 245 244 244 245 246 248 250 251 252 254 256 259 260 261 260 259 259 258 256 254 253 252 252 253 255 257 260 263 266 270 273 275 276 277 277 278 280 282 285 287 289 293 297 298 296 294 291 287 282 280 280 279 276 271
275 274 274 273 272 271 270 269 268 267 267 266 265 264 263 262 261 260 258 257 255 255 255 254 251 248 245 243 244 244 245 245 244 244 245 246 246 247 248 250 251 252 254 256 258 259 259 259 259 258 255 253 253 254 257 259 261 263 266 268 270 272 274 276 277 279 281 283 285 286 287 289 292 292 292 290 290 290 287 281 275 272 271 270 269
273 273 273 273 274 273 272 270 269 268 267 266 266 265 263 262 261 260 260 258 256 254 254 253 251 249 246 245 245 245 245 245 244 244 245 246 246 246 246 247 249 249 251 252 254 255 257 257 258 259 258 256 254 255 257 260 262 263 264 266 268 270 272 274 276 278 279 279 280 282 285 288 289 288 286 283 280 280 280 279 275 270 269 270 273
273 272 272 273 274 274 274 272 271 269 268 267 266 265 264 263 262 260 260 259 257 254 253 251 251 249 247 246 246 245 245 245 245 245 244 245 245 246 246 247 247 247 247 248 249 252 255 257 258 258 258 258 259 259 259 259 260 261 263 265 267 270 272 273 275 276 277 278 280 282 284 284 284 283 282 280 276 275 276 276 273 269 269 273 277
274 273 273 272 273 272 272 272 271 269 268 266 266 265 264 264 263 261 259 258 257 256 253 252 251 250 249 247 246 245 246 246 246 246 245 244 244 245 245 246 247 246 245 245 247 249 253 256 257 257 257 258 260 263 264 262 261 262 263 265 267 269 271 272 273 274 276 279 281 281 281 280 280 281 281 279 278 277 276 275 273 272 272 275 278
275 274 273 272 270 269 268 269 269 269 268 266 265 264 265 264 263 262 261 259 257 255 254 252 251 250 251 249 247 246 246 247 247 247 246 245 244 244 244 245 246 246 246 246 246 247 250 253 255 255 255 255 256 258 260 261 261 262 262 264 266 268 269 271 272 273 274 276 277 278 277 276 277 278 279 278 278 278 277 276 277 276 274 275 278
274 273 272 270 268 266 264 264 265 267 268 267 265 263 262 263 263 263 262 259 255 253 252 250 249 249 249 250 249 248 247 246 247 248 248 248 247 245 244 245 245 246 247 247 246 246 248 250 252 252 252 253 254 254 255 257 259 261 261 263 264 266 267 269 270 271 271 272 273 274 275 276 277 277 277 278 278 279 278 277 278 278 276 276 277
273 271 269 267 264 262 260 260 261 263 266 268 268 265 262 260 259 258 256 253 250 249 249 249 250 249 248 249 250 250 249 247 248 249 251 251 250 248 246 245 246 246 246 246 246 246 246 247 249 250 250 251 252 253 253 254 256 258 260 262 262 264 265 267 268 268 269 270 272 273 275 277 277 277 277 277 277 277 277 277 278 279 279 279 280
269 267 265 264 262 260 258 258 259 259 259 261 264 266 264 260 257 254 250 248 246 245 245 247 249 250 250 250 249 249 250 250 250 251 252 254 254 252 249 247 246 247 246 246 246 246 246 246 246 248 249 250 250 251 252 253 254 256 259 260 262 263 265 266 267 268 268 269 270 272 274 276 277 277 277 277 277 277 278 279 282 284 283 282 282
267 265 263 262 262 261 260 258 257 256 255 254 257 260 260 258 255 253 251 249 247 246 245 245 246 249 251 250 248 248 249 250 252 253 255 256 256 255 253 250 248 247 247 246 246 246 246 245 245 246 248 249 250 250 251 253 254 255 257 259 261 262 264 266 267 268 268 268 269 270 272 275 276 276 277 279 281 282 284 286 288 288 285 283 283
268 265 264 262 261 261 259 255 252 251 252 252 253 254 255 253 250 249 251 251 249 247 246 245 245 247 249 250 248 246 247 250 253 256 258 258 258 257 256 254 252 249 248 247 246 246 246 246 245 245 247 248 250 250 251 253 255 256 257 259 261 262 265 267 268 269 270 271 272 274 277 278 278 277 278 280 282 283 284 285 286 286 284 283 283
271 267 264 262 259 256 254 251 250 249 249 251 254 256 256 251 246 246 250 252 251 248 247 247 248 249 251 253 252 249 248 250 253 257 259 260 261 261 259 257 255 253 250 248 246 246 246 246 246 246 247 248 250 251 252 253 255 257 258 260 262 263 266 268 269 270 272 273 275 279 281 283 282 281 281 280 280 280 280 280 280 280 280 281 281
276 271 266 262 257 253 250 249 249 250 251 254 258 260 256 249 246 247 250 252 252 250 250 252 254 255 257 259 259 255 252 251 253 256 259 261 263 263 263 260 258 256 254 251 248 247 246 247 248 248 248 249 250 252 253 254 255 258 259 261 262 264 267 269 271 271 272 274 276 279 281 283 285 286 286 285 284 283 282 282 281 281 282 283 283
281 275 269 263 257 252 249 249 249 251 253 256 258 257 253 248 247 248 249 251 252 253 253 254 256 258 261 262 262 259 255 253 253 256 260 262 264 265 265 263 261 259 257 255 252 249 248 248 249 250 250 250 251 253 254 255 256 258 260 261 262 265 268 271 272 273 273 273 275 277 279 282 285 286 288 288 288 287 286 286 286 286 287 287 287
Height
3209 3211 3213 3215 3217 3218 3220 3221 3223 3224 3226 3227 3228 3229 3230 3231 3231 3232 3234 3235 3236 3236 3237 3238 3239 3240 3241 3242 3243 3244 3245 3245 3246 3247 3248 3248 3249 3250 3250 3251 3251 3252 3253 3253 3254 3254 3255 3256 3256 3257 3258 3258 3258 3259 3259 3260 3261 3261 3262 3262 3263 3264 3264 3265 3265 3266 3267 3267 3267 3267 3267 3267 3267 3267 3267 3266 3266 3265 3265 3264 3263 3262 3261 3260 3261
3208 3210 3212 3214 3216 3218 3220 3221 3222 3223 3225 3226 3227 3228 3229 3230 3231 3232 3232 3234 3235 3236 3237 3238 3238 3239 3240 3241 3242 3243 3244 3245 3246 3246 3247 3248 3248 3249 3250 3251 3251 3252 3253 3253 3254 3254 3255 3255 3256 3257 3257 3258 3258 3258 3259 3259 3260 3260 3261 3261 3262 3263 3263 3264 3264 3265 3265 3265 3266 3266 3266 3266 3266 3266 3265 3265 3265 3264 3264 3263 3263 3261 3259 3258 3257
3207 3209 3210 3212 3214 3216 3218 3220 3220 3221 3223 3224 3225 3226 3228 3229 3230 3231 3232 3233 3234 3235 3236 3237 3238 3239 3240 3240 3241 3242 3244 3244 3245 3246 3247 3247 3248 3249 3249 3250 3251 3252 3252 3253 3254 3254 3255 3255 3256 3256 3257 3257 3257 3258 3258 3259 3259 3260 3260 3261 3261 3262 3262 3263 3263 3263 3264 3264 3264 3265 3265 3265 3264 3264 3264 3264 3263 3263 3262 3262 3261 3260 3259 3257 3255
3206 3208 3210 3211 3212 3214 3216 3218 3219 3220 3221 3223 3224 3225 3226 3227 3228 3230 3231 3232 3233 3234 3235 3236 3237 3238 3239 3240 3241 3242 3243 3244 3245 3245 3246 3247 3247 3248 3249 3250 3250 3251 3252 3253 3253 3254 3254 3255 3255 3256 3256 3256 3257 3257 3258 3258 3259 3259 3260 3260 3260 3261 3261 3262 3262 3262 3262 3263 3263 3263 3263 3263 3263 3262 3262 3262 3261 3261 3260 3259 3259 3258 3257 3256 3254
3204 3206 3208 3210 3211 3211 3213 3215 3217 3218 3219 3220 3221 3223 3224 3225 3227 3228 3229 3230 3232 3233 3234 3235 3236 3237 3238 3239 3240 3241 3242 3243 3244 3245 3245 3246 3246 3247 3248 3249 3250 3250 3251 3252 3252 3253 3253 3254 3254 3255 3255 3256 3256 3256 3257 3257 3258 3258 3259 3259 3259 3260 3260 3260 3261 3261 3261 3261 3261 3261 3261 3261 3261 3260 3260 3259 3259 3259 3258 3257 3256 3255 3255 3254 3252
3202 3204 3206 3207 3208 3209 3210 3212 3214 3214 3217 3219 3220 3221 3223 3224 3225 3226 3228 3229 3230 3231 3233 3234 3235 3236 3237 3238 3239 3240 3241 3242 3242 3243 3244 3245 3245 3246 3247 3248 3248 3249 3250 3251 3251 3252 3252 3253 3253 3254 3254 3255 3255 3256 3256 3256 3257 3257 3258 3258 3258 3258 3259 3259 3259 3259 3259 3259 3259 3259 3259 3259 3259 3258 3258 3257 3257 3256 3256 3255 3254 3253 3252 3251 3250
3200 3202 3204 3206 3207 3207 3206 3207 3208 3209 3212 3216 3217 3219 3221 3222 3224 3225 3226 3227 3229 3230 3231 3232 3234 3235 3236 3237 3238 3239 3240 3240 3241 3242 3243 3244 3244 3245 3245 3246 3247 3248 3248 3249 3250 3250 3251 3252 3252 3253 3253 3254 3254 3255 3255 3255 3256 3256 3256 3257 3257 3257 3257 3257 3257 3257 3257 3257 3257 3257 3257 3257 3256 3256 3256 3255 3254 3254 3253 3252 3252 3251 3250 3250 3249
3197 3198 3200 3201 3203 3203 3200 3200 3201 3203 3207 3211 3214 3217 3219 3220 3222 3223 3224 3226 3227 3228 3229 3230 3232 3233 3234 3235 3236 3237 3238 3239 3240 3240 3241 3242 3243 3243 3244 3245 3246 3246 3247 3248 3248 3249 3249 3250 3251 3251 3252 3252 3253 3253 3254 3254 3254 3255 3255 3255 3255 3255 3256 3255 3255 3255 3255 3255 3255 3255 3255 3254 3254 3254 3253 3252 3252 3251 3250 3249 3249 3248 3248 3247 3247
3196 3196 3196 3196 3198 3197 3194 3194 3197 3199 3201 3203 3206 3210 3214 3217 3219 3220 3222 3224 3225 3227 3228 3228 3229 3230 3232 3233 3234 3235 3236 3237 3238 3239 3240 3241 3241 3242 3242 3243 3244 3245 3245 3246 3247 3247 3248 3248 3249 3249 3250 3251 3251 3252 3252 3252 3253 3253 3253 3253 3253 3254 3254 3253 3253 3253 3253 3253 3253 3253 3252 3252 3252 3251 3251 3250 3249 3248 3247 3246 3246 3245 3245 3245 3244
3195 3195 3194 3193 3193 3193 3192 3192 3195 3198 3200 3201 3203 3206 3210 3213 3216 3218 3220 3221 3223 3225 3226 3226 3227 3227 3229 3230 3232 3233 3233 3234 3235 3237 3238 3239 3240 3240 3241 3241 3242 3243 3243 3244 3245 3245 3246 3247 3247 3248 3248 3248 3249 3250 3251 3251 3251 3251 3251 3251 3251 3251 3251 3251 3251 3251 3251 3250 3250 3250 3250 3249 3249 3248 3248 3247 3246 3245 3244 3243 3242 3242 3241 3241 3241
3194 3192 3191 3191 3191 3191 3192 3194 3197 3199 3200 3202 3205 3208 3210 3211 3214 3216 3217 3218 3220 3222 3223 3224 3225 3225 3226 3227 3229 3230 3231 3232 3233 3234 3236 3237 3238 3239 3239 3240 3240 3241 3241 3242 3242 3243 3244 3245 3245 3246 3246 3246 3247 3247 3248 3249 3249 3249 3249 3249 3249 3249 3249 3249 3249 3249 3248 3248 3248 3247 3247 3247 3247 3246 3245 3244 3244 3242 3242 3241 3239 3238 3238 3237 3237
3191 3190 3190 3189 3189 3191 3194 3196 3197 3196 3198 3202 3206 3208 3210 3211 3213 3215 3216 3217 3218 3219 3220 3221 3221 3222 3223 3224 3225 3227 3228 3230 3231 3232 3233 3235 3236 3237 3237 3237 3238 3238 3239 3240 3240 3241 3242 3242 3243 3243 3244 3244 3245 3245 3245 3246 3247 3247 3247 3247 3246 3246 3246 3246 3246 3246 3246 3245 3245 3244 3244 3244 3243 3243 3243 3242 3241 3240 3239 3238 3237 3236 3235 3234 3233
3189 3189 3189 3189 3189 3192 3195 3195 3195 3196 3200 3204 3207 3208 3209 3210 3212 3213 3216 3217 3218 3218 3219 3219 3220 3220 3221 3221 3222 3223 3225 3227 3228 3229 3231 3233 3234 3235 3235 3235 3236 3236 3236 3237 3238 3239 3239 3240 3240 3241 3241 3242 3242 3242 3242 3243 3244 3244 3244 3244 3244 3244 3244 3243 3243 3243 3243 3242 3242 3242 3242 3241 3240 3240 3240 3239 3237 3237 3236 3236 3235 3234 3233 3232 3231
3187 3188 3188 3187 3188 3191 3193 3193 3194 3198 3200 3202 3203 3204 3205 3206 3208 3210 3212 3214 3215 3216 3217 3217 3218 3220 3221 3221 3221 3221 3223 3224 3226 3227 3228 3230 3232 3233 3233 3233 3233 3234 3234 3234 3235 3236 3236 3237 3237 3238 3239 3239 3240 3240 3239 3239 3240 3241 3241 3241 3241 3241 3241 3240 3240 3240 3240 3239 3239 3239 3239 3239 3238 3237 3237 3236 3234 3233 3233 3232 3232 3231 3230 3229 3229
3184 3185 3185 3186 3186 3188 3190 3191 3192 3195 3197 3198 3199 3202 3204 3206 3208 3208 3209 3210 3212 3213 3214 3215 3216 3217 3219 3220 3220 3220 3221 3222 3223 3224 3225 3227 3229 3230 3231 3231 3231 3231 3231 3232 3232 3233 3233 3234 3234 3235 3236 3237 3237 3238 3238 3237 3236 3236 3237 3237 3238 3238 3238 3238 3238 3237 3237 3236 3236 3235 3236 3236 3235 3234 3234 3233 3232 3231 3230 3229 3228 3228 3227 3227 3226
3182 3182 3182 3183 3184 3185 3187 3188 3189 3191 3194 3196 3198 3201 3203 3205 3206 3206 3206 3207 3209 3210 3211 3212 3213 3214 3215 3216 3216 3217 3218 3219 3220 3220 3222 3223 3225 3226 3227 3228 3228 3229 3229 3229 3230 3230 3231 3231 3231 3232 3232 3233 3234 3235 3235 3235 3234 3233 3233 3233 3234 3234 3234 3234 3235 3235 3234 3233 3233 3232 3232 3232 3232 3231 3231 3230 3229 3228 3227 3225 3225 3225 3224 3223 3223
3180 3180 3181 3181 3182 3183 3184 3185 3187 3190 3192 3194 3195 3198 3200 3201 3202 3203 3204 3205 3206 3207 3208 3209 3210 3210 3211 3212 3212 3213 3214 3216 3218 3218 3219 3220 3221 3222 3223 3224 3225 3226 3226 3227 3227 3228 3228 3229 3229 3229 3229 3230 3231 3231 3232 3232 3231 3231 3230 3230 3230 3229 3229 3230 3230 3230 3230 3230 3230 3229 3229 3229 3228 3228 3228 3227 3226 3226 3224 3223 3223 3222 3220 3219 3219
3178 3179 3180 3180 3180 3181 3182 3183 3186 3188 3189 3190 3191 3193 3196 3197 3198 3199 3201 3202 3203 3204 3205 3205 3206 3206 3207 3207 3208 3209 3210 3213 3214 3215 3216 3217 3217 3218 3219 3220 3221 3222 3222 3223 3224 3224 3225 3225 3226 3226 3226 3227 3227 3228 3228 3228 3228 3228 3228 3227 3226 3225 3225 3226 3226 3225 3225 3225 3225 3225 3225 3225 3225 3225 3224 3224 3224 3223 3221 3220 3221 3219 3218 3217 3216
3176 3177 3178 3178 3179 3180 3180 3181 3183 3184 3186 3187 3188 3190 3193 3194 3196 3197 3198 3199 3200 3201 3202 3203 3203 3203 3204 3204 3204 3205 3206 3208 3211 3212 3213 3214 3214 3215 3215 3215 3216 3217 3218 3219 3220 3220 3220 3221 3222 3222 3222 3223 3224 3224 3224 3224 3224 3224 3224 3223 3222 3222 3222 3223 3222 3222 3221 3220 3220 3220 3220 3221 3221 3221 3221 3221 3221 3220 3219 3218 3218 3217 3215 3215 3214
3175 3176 3176 3177 3178 3179 3179 3180 3181 3182 3183 3185 3186 3188 3191 3192 3194 3195 3196 3197 3197 3197 3198 3199 3200 3200 3201 3200 3201 3202 3203 3205 3206 3206 3206 3207 3208 3209 3210 3211 3212 3213 3214 3214 3215 3215 3216 3217 3218 3218 3219 3220 3220 3220 3220 3220 3220 3220 3220 3219 3218 3219 3219 3219 3218 3218 3217 3216 3216 3215 3215 3216 3216 3216 3217 3218 3218 3217 3216 3216 3215 3214 3213 3212 3212
3174 3174 3175 3175 3176 3177 3178 3179 3179 3180 3181 3182 3183 3185 3187 3189 3190 3192 3193 3194 3193 3194 3194 3195 3196 3197 3197 3197 3198 3198 3197 3196 3196 3197 3200 3202 3203 3204 3205 3207 3209 3210 3210 3210 3210 3211 3212 3212 3213 3214 3215 3215 3216 3217 3217 3216 3216 3216 3216 3215 3215 3215 3215 3214 3214 3214 3213 3212 3212 3211 3211 3211 3211 3212 3213 3214 3214 3214 3214 3213 3213 3212 3210 3210 3209
3172 3172 3172 3173 3174 3175 3176 3177 3178 3179 3180 3181 3182 3183 3184 3184 3185 3186 3188 3189 3189 3190 3191 3191 3192 3193 3193 3194 3194 3193 3191 3192 3196 3200 3203 3204 3204 3204 3203 3205 3206 3206 3206 3207 3207 3207 3208 3208 3209 3210 3210 3210 3211 3212 3212 3212 3212 3212 3212 3212 3212 3211 3211 3210 3210 3209 3209 3208 3208 3208 3207 3207 3208 3208 3209 3210 3210 3211 3210 3210 3211 3210 3209 3208 3207
3168 3169 3170 3170 3171 3172 3173 3174 3175 3176 3177 3178 3179 3180 3181 3182 3182 3182 3183 3184 3185 3186 3187 3187 3188 3189 3189 3190 3190 3190 3191 3196 3200 3203 3203 3203 3202 3203 3202 3203 3203 3203 3203 3203 3204 3204 3205 3205 3205 3205 3205 3206 3206 3207 3207 3208 3207 3207 3208 3208 3208 3207 3207 3206 3205 3205 3205 3205 3205 3204 3205 3205 3205 3205 3206 3206 3207 3207 3206 3206 3207 3207 3207 3206 3205
3164 3166 3167 3167 3168 3168 3169 3171 3172 3174 3175 3176 3176 3177 3178 3180 3180 3180 3180 3181 3181 3182 3182 3183 3184 3185 3185 3186 3187 3188 3191 3194 3196 3197 3197 3196 3197 3198 3199 3199 3200 3199 3199 3200 3200 3201 3202 3202 3201 3202 3202 3202 3203 3203 3203 3203 3203 3203 3203 3203 3203 3203 3202 3201 3201 3201 3201 3201 3201 3201 3202 3202 3202 3203 3203 3204 3204 3203 3203 3202 3202 3202 3202 3202 3202
3160 3161 3163 3163 3164 3165 3166 3167 3169 3170 3172 3173 3174 3175 3176 3177 3178 3178 3178 3178 3179 3179 3179 3179 3180 3180 3181 3182 3183 3185 3187 3189 3190 3191 3191 3192 3193 3194 3194 3195 3195 3194 3194 3195 3197 3197 3197 3197 3197 3198 3198 3199 3199 3199 3199 3199 3199 3199 3199 3199 3199 3198 3198 3198 3198 3197 3196 3196 3197 3197 3198 3199 3200 3200 3201 3201 3201 3200 3200 3200 3200 3200 3199 3198 3198
3156 3157 3158 3159 3160 3161 3162 3163 3165 3166 3168 3169 3170 3172 3172 3173 3175 3175 3176 3176 3176 3176 3176 3176 3176 3176 3177 3178 3180 3181 3182 3184 3185 3186 3187 3189 3190 3190 3190 3190 3190 3190 3190 3191 3193 3193 3193 3193 3193 3193 3193 3193 3193 3194 3194 3194 3195 3194 3194 3194 3194 3194 3195 3194 3193 3193 3192 3192 3193 3193 3194 3195 3196 3197 3197 3198 3198 3198 3198 3198 3198 3198 3197 3196 3194
3151 3152 3153 3154 3155 3156 3157 3159 3160 3161 3163 3164 3166 3167 3168 3170 3171 3172 3172 3173 3173 3173 3172 3172 3172 3173 3174 3175 3176 3177 3177 3178 3179 3181 3182 3184 3184 3184 3185 3186 3186 3185 3186 3187 3188 3188 3188 3188 3188 3189 3189 3189 3188 3188 3189 3189 3190 3190 3190 3190 3190 3190 3191 3190 3189 3189 3188 3188 3189 3189 3190 3191 3192 3193 3194 3194 3194 3195 3196 3196 3195 3195 3195 3195 3192
3147 3148 3148 3149 3150 3151 3152 3153 3154 3156 3157 3159 3161 3162 3164 3165 3166 3167 3168 3168 3169 3169 3169 3169 3169 3170 3170 3171 3172 3172 3173 3173 3174 3176 3178 3178 3178 3179 3180 3181 3181 3181 3182 3182 3183 3184 3184 3184 3184 3185 3185 3185 3185 3185 3184 3185 3185 3185 3185 3186 3186 3186 3186 3186 3185 3185 3185 3185 3185 3186 3186 3187 3188 3189 3190 3191 3191 3192 3193 3193 3192 3192 3192 3191 3189
3142 3143 3143 3144 3145 3145 3147 3148 3149 3150 3151 3153 3155 3157 3158 3159 3160 3161 3163 3164 3164 3165 3165 3165 3166 3166 3167 3167 3168 3168 3169 3169 3170 3172 3173 3173 3173 3174 3175 3176 3176 3177 3177 3178 3178 3178 3179 3179 3180 3180 3181 3181 3180 3180 3180 3181 3181 3181 3181 3182 3181 3181 3181 3181 3181 3181 3182 3182 3181 3182 3183 3184 3185 3186 3186 3187 3187 3188 3188 3188 3188 3188 3188 3187 3185
3136 3137 3138 3139 3139 3140 3141 3142 3143 3144 3145 3147 3148 3150 3152 3154 3154 3156 3158 3159 3160 3160 3160 3161 3162 3162 3163 3164 3165 3164 3165 3166 3166 3167 3168 3168 3168 3169 3171 3172 3172 3173 3174 3174 3174 3174 3173 3173 3174 3175 3175 3175 3175 3175 3176 3177 3177 3177 3178 3178 3177 3177 3177 3177 3177 3178 3178 3178 3178 3178 3179 3180 3181 3182 3183 3183 3183 3183 3183 3183 3183 3182 3182 3182 3180
3131 3132 3132 3133 3134 3134 3135 3136 3137 3138 3139 3140 3141 3142 3145 3147 3148 3150 3152 3153 3154 3154 3155 3156 3157 3158 3159 3160 3161 3161 3161 3162 3162 3162 3163 3163 3163 3164 3165 3166 3168 3170 3170 3170 3169 3169 3169 3168 3169 3170 3170 3169 3169 3170 3172 3172 3173 3173 3173 3173 3173 3172 3172 3172 3173 3174 3174 3174 3174 3174 3175 3176 3177 3178 3179 3179 3179 3178 3177 3177 3176 3176 3176 3176 3175
3125 3126 3127 3128 3128 3129 3129 3130 3131 3132 3133 3134 3135 3136 3137 3139 3141 3143 3145 3146 3148 3148 3149 3150 3151 3153 3154 3155 3157 3157 3157 3157 3157 3158 3158 3158 3158 3159 3160 3161 3164 3166 3165 3164 3164 3165 3164 3164 3164 3165 3165 3164 3165 3166 3167 3167 3167 3168 3168 3168 3168 3168 3168 3168 3169 3169 3168 3169 3169 3169 3170 3172 3173 3175 3176 3176 3175 3173 3172 3171 3170 3170 3170 3170 3169
3120 3121 3121 3122 3122 3123 3123 3124 3124 3125 3126 3127 3128 3129 3130 3131 3133 3136 3138 3139 3141 3142 3143 3144 3145 3147 3148 3150 3151 3152 3153 3153 3153 3153 3153 3153 3153 3153 3155 3156 3159 3160 3159 3158 3159 3160 3160 3160 3160 3160 3161 3160 3160 3161 3162 3162 3162 3163 3163 3163 3163 3164 3164 3164 3163 3163 3163 3163 3163 3163 3164 3166 3168 3170 3171 3171 3171 3169 3168 3166 3165 3165 3165 3164 3164
3115 3115 3116 3116 3116 3117 3117 3118 3118 3119 3120 3121 3122 3123 3124 3124 3126 3128 3130 3131 3133 3135 3137 3138 3139 3140 3141 3143 3145 3146 3147 3147 3148 3149 3149 3148 3148 3148 3150 3152 3154 3154 3153 3154 3155 3155 3155 3156 3156 3157 3157 3156 3156 3156 3157 3157 3157 3157 3157 3158 3158 3159 3159 3159 3159 3158 3159 3158 3157 3157 3158 3160 3162 3164 3166 3167 3168 3167 3166 3164 3163 3162 3161 3160 3160
3109 3110 3110 3110 3110 3111 3111 3112 3112 3113 3113 3114 3115 3116 3117 3118 3119 3120 3122 3124 3126 3128 3130 3131 3132 3133 3135 3136 3138 3140 3141 3142 3142 3143 3144 3143 3143 3144 3145 3147 3149 3149 3148 3149 3150 3150 3150 3151 3152 3153 3153 3152 3152 3151 3152 3152 3152 3152 3152 3152 3153 3153 3154 3154 3154 3154 3154 3153 3152 3152 3152 3153 3157 3163 3165 3165 3165 3164 3163 3161 3160 3159 3158 3157 3155
3103 3104 3104 3104 3104 3105 3105 3106 3106 3107 3107 3108 3108 3109 3110 3111 3112 3113 3115 3116 3118 3120 3122 3124 3126 3127 3128 3129 3131 3133 3134 3136 3136 3137 3137 3138 3139 3139 3140 3142 3144 3144 3143 3144 3145 3146 3145 3145 3147 3148 3148 3148 3148 3147 3147 3147 3147 3147 3147 3147 3147 3148 3148 3149 3149 3149 3149 3148 3146 3145 3146 3150 3157 3162 3163 3161 3160 3160 3158 3157 3155 3154 3153 3152 3151
3096 3097 3098 3098 3098 3098 3099 3099 3099 3100 3101 3101 3102 3102 3103 3104 3105 3106 3108 3109 3110 3112 3114 3117 3118 3120 3121 3123 3124 3125 3127 3129 3130 3130 3131 3132 3133 3134 3135 3137 3138 3138 3138 3139 3140 3141 3140 3140 3141 3142 3143 3143 3143 3144 3143 3143 3143 3143 3143 3142 3142 3142 3142 3143 3144 3143 3141 3138 3138 3140 3144 3150 3156 3158 3157 3154 3154 3154 3152 3151 3150 3149 3148 3147 3146
3089 3089 3090 3091 3091 3091 3091 3092 3092 3093 3093 3094 3095 3096 3096 3097 3098 3099 3100 3102 3103 3104 3106 3109 3111 3112 3114 3116 3117 3118 3119 3121 3122 3124 3125 3126 3127 3128 3129 3131 3133 3133 3133 3134 3134 3135 3135 3135 3135 3136 3137 3138 3139 3139 3139 3139 3138 3138 3138 3138 3138 3137 3136 3137 3137 3134 3131 3132 3135 3139 3142 3146 3150 3151 3150 3148 3148 3147 3146 3145 3144 3143 3142 3141 3139
3082 3082 3083 3083 3083 3084 3084 3084 3085 3085 3086 3087 3088 3089 3089 3090 3091 3092 3093 3094 3096 3097 3099 3101 3103 3105 3106 3108 3109 3110 3111 3113 3114 3116 3118 3119 3121 3122 3123 3125 3126 3127 3128 3129 3129 3129 3129 3129 3129 3130 3131 3132 3133 3133 3133 3133 3133 3133 3133 3133 3133 3132 3132 3131 3130 3128 3128 3129 3131 3133 3136 3139 3142 3143 3142 3141 3141 3141 3140 3139 3138 3137 3136 3135 3133
3076 3076 3076 3076 3076 3076 3076 3077 3077 3078 3078 3079 3080 3081 3082 3083 3085 3086 3086 3087 3088 3090 3091 3093 3095 3097 3099 3100 3101 3102 3103 3104 3106 3109 3111 3112 3114 3116 3117 3118 3120 3122 3123 3124 3124 3123 3123 3123 3124 3124 3124 3126 3127 3127 3127 3127 3127 3127 3127 3127 3127 3127 3126 3125 3124 3124 3123 3122 3124 3127 3131 3134 3135 3135 3134 3134 3133 3133 3133 3133 3133 3132 3131 3130 3129
3071 3070 3069 3069 3069 3069 3069 3069 3069 3070 3071 3071 3072 3073 3074 3075 3077 3078 3079 3080 3081 3082 3084 3085 3087 3089 3091 3092 3093 3094 3095 3096 3098 3101 3103 3105 3107 3109 3110 3112 3113 3115 3116 3117 3118 3117 3117 3118 3118 3118 3118 3119 3120 3121 3122 3122 3122 3121 3121 3121 3121 3121 3121 3120 3120 3118 3116 3115 3119 3124 3127 3127 3127 3128 3128 3128 3126 3126 3126 3127 3127 3127 3126 3125 3125
3064 3063 3063 3063 3063 3063 3062 3062 3062 3062 3063 3063 3064 3065 3066 3067 3069 3070 3072 3073 3074 3076 3077 3078 3080 3081 3082 3084 3085 3086 3087 3089 3090 3092 3094 3096 3099 3101 3103 3105 3106 3107 3109 3111 3112 3112 3112 3112 3113 3113 3112 3113 3113 3114 3115 3116 3116 3116 3116 3116 3116 3116 3116 3115 3115 3114 3111 3110 3114 3118 3120 3120 3120 3121 3122 3122 3121 3120 3120 3120 3120 3120 3120 3119 3119
3057 3056 3056 3056 3056 3056 3056 3055 3055 3055 3055 3056 3056 3058 3059 3060 3061 3062 3064 3066 3067 3068 3070 3071 3072 3073 3074 3075 3076 3078 3079 3080 3082 3083 3086 3088 3091 3093 3095 3097 3099 3100 3102 3104 3106 3106 3106 3106 3107 3107 3107 3107 3108 3109 3109 3109 3110 3111 3111 3111 3111 3111 3111 3111 3110 3109 3108 3107 3109 3112 3113 3113 3113 3113 3114 3115 3115 3115 3114 3114 3114 3114 3113 3113 3113
3050 3049 3048 3049 3049 3049 3049 3049 3049 3048 3049 3049 3049 3050 3052 3053 3054 3055 3057 3058 3060 3061 3062 3063 3065 3066 3066 3067 3068 3069 3071 3072 3074 3076 3078 3080 3082 3084 3087 3089 3091 3093 3094 3097 3098 3099 3100 3100 3101 3101 3101 3102 3102 3103 3103 3104 3104 3104 3105 3105 3105 3105 3106 3106 3105 3105 3104 3103 3103 3105 3106 3106 3105 3106 3107 3108 3108 3107 3108 3108 3108 3108 3107 3107 3107
3042 3042 3041 3041 3041 3041 3042 3042 3042 3043 3044 3044 3044 3044 3045 3046 3047 3048 3050 3051 3053 3053 3054 3056 3057 3058 3059 3060 3060 3061 3062 3064 3066 3068 3071 3072 3074 3076 3078 3081 3083 3084 3086 3088 3090 3092 3093 3094 3094 3095 3095 3096 3096 3097 3097 3098 3098 3098 3099 3099 3099 3100 3100 3100 3100 3100 3099 3099 3098 3099 3099 3099 3098 3098 3100 3100 3100 3099 3099 3099 3100 3101 3102 3102 3102
3035 3034 3033 3033 3033 3034 3035 3036 3036 3037 3038 3038 3038 3038 3039 3040 3041 3042 3043 3045 3046 3047 3048 3050 3051 3052 3053 3053 3053 3053 3054 3056 3058 3061 3063 3065 3066 3068 3070 3072 3074 3076 3078 3080 3082 3084 3086 3087 3088 3088 3089 3089 3090 3090 3091 3091 3092 3092 3093 3093 3093 3094 3094 3094 3094 3094 3094 3094 3093 3093 3093 3093 3092 3092 3092 3092 3092 3093 3094 3094 3095 3097 3097 3096 3095
3028 3027 3027 3027 3027 3027 3029 3030 3030 3031 3032 3032 3033 3033 3033 3034 3035 3036 3037 3039 3040 3040 3042 3043 3044 3045 3045 3045 3045 3046 3047 3049 3051 3053 3055 3057 3058 3060 3062 3063 3065 3067 3069 3072 3074 3076 3078 3079 3080 3081 3082 3083 3083 3084 3084 3085 3086 3086 3087 3087 3087 3088 3088 3088 3088 3088 3088 3088 3087 3087 3087 3087 3085 3085 3086 3087 3086 3087 3089 3091 3091 3090 3089 3087 3086
3022 3022 3021 3021 3021 3022 3023 3024 3025 3025 3026 3026 3027 3027 3028 3028 3029 3030 3031 3033 3034 3034 3035 3036 3037 3037 3037 3037 3038 3040 3041 3042 3044 3045 3047 3049 3050 3052 3054 3056 3057 3059 3061 3063 3066 3068 3070 3071 3073 3074 3075 3076 3076 3077 3078 3078 3079 3080 3080 3080 3081 3081 3082 3082 3082 3082 3082 3082 3081 3081 3081 3080 3079 3079 3082 3084 3082 3081 3082 3083 3082 3081 3080 3079 3078
3017 3016 3015 3015 3016 3016 3017 3018 3019 3020 3020 3020 3021 3021 3022 3022 3023 3024 3026 3027 3027 3027 3028 3029 3030 3031 3031 3032 3033 3034 3035 3036 3037 3038 3039 3041 3043 3044 3046 3048 3049 3051 3053 3055 3057 3059 3061 3063 3065 3066 3067 3069 3070 3070 3071 3072 3073 3073 3074 3074 3075 3075 3075 3076 3076 3076 3076 3076 3075 3074 3074 3074 3073 3073 3075 3077 3076 3075 3075 3075 3074 3074 3073 3071 3070
3012 3011 3010 3010 3010 3011 3012 3013 3013 3014 3014 3015 3015 3015 3016 3016 3018 3019 3020 3020 3019 3020 3022 3023 3024 3025 3026 3027 3027 3028 3028 3029 3030 3031 3032 3034 3036 3037 3039 3040 3042 3044 3045 3047 3049 3051 3053 3055 3057 3058 3060 3061 3063 3064 3065 3065 3066 3066 3067 3067 3068 3069 3069 3069 3070 3070 3069 3069 3069 3069 3068 3067 3067 3067 3067 3068 3068 3068 3068 3067 3066 3065 3064 3063 3061
3006 3005 3005 3004 3005 3006 3007 3007 3007 3008 3009 3009 3010 3010 3011 3011 3012 3013 3013 3013 3013 3014 3016 3017 3018 3019 3020 3021 3021 3021 3022 3022 3023 3025 3026 3028 3029 3030 3032 3033 3035 3036 3038 3040 3041 3043 3045 3047 3049 3050 3052 3054 3055 3057 3058 3059 3059 3060 3060 3061 3061 3062 3063 3063 3063 3063 3063 3063 3063 3063 3062 3061 3061 3061 3060 3060 3060 3060 3059 3059 3058 3057 3055 3054 3053